SWQ07 ANYN-NGTA

Flight info

Callsign SWQ07
Flight time 1h 4m
Altitude 37000
Route OVNAK DCT 0011N16922E DCT KASKU DCT 0038N17037E DCT WESLI
Aircraft B738/M-SDE2E3FGHIRWXY/LB1

Departure

Time 2026-04-23 19:00
Airport Nauru International Airport (ANYN)

Arrival

Time 2026-04-23 20:05
Airport Bonriki International Airport (NGTA)
Time Latitude Longitude Altitude Speed Heading
2026-04-23 18:47 -0.54409 166.91659 24 ft 0 kts 39°
2026-04-23 18:57 -0.54405 166.91666 24 ft 5 kts 60°
2026-04-23 18:57 -0.54433 166.91684 25 ft 10 kts 165°
2026-04-23 18:57 -0.54501 166.91612 23 ft 23 kts 275°
2026-04-23 18:58 -0.54401 166.91502 22 ft 25 kts 309°
2026-04-23 18:58 -0.54284 166.91362 28 ft 26 kts 310°
2026-04-23 18:58 -0.54172 166.91236 27 ft 15 kts 320°
2026-04-23 18:58 -0.54117 166.91202 28 ft 6 kts 264°
2026-04-23 18:59 -0.54143 166.91202 28 ft 5 kts 131°
2026-04-23 18:59 -0.54148 166.91208 27 ft 0 kts 130°
2026-04-23 18:59 -0.54157 166.91219 27 ft 17 kts 129°
2026-04-23 19:00 -0.54425 166.91534 22 ft 100 kts 130°
2026-04-23 19:00 -0.55016 166.92226 100 ft 157 kts 129°
2026-04-23 19:00 -0.55753 166.93055 922 ft 154 kts 130°
2026-04-23 19:00 -0.56466 166.93883 1767 ft 161 kts 130°
2026-04-23 19:01 -0.57220 166.94789 2186 ft 183 kts 129°
2026-04-23 19:01 -0.58095 166.95839 2419 ft 208 kts 129°
2026-04-23 19:01 -0.59074 166.97008 2595 ft 230 kts 130°
2026-04-23 19:01 -0.60154 166.98290 2818 ft 250 kts 130°
2026-04-23 19:02 -0.60925 166.99202 3185 ft 257 kts 130°
2026-04-23 19:02 -0.62457 167.01009 4205 ft 258 kts 130°
2026-04-23 19:02 -0.63630 167.02390 4927 ft 263 kts 130°
2026-04-23 19:02 -0.64808 167.03801 5636 ft 266 kts 125°
2026-04-23 19:03 -0.65506 167.05499 6354 ft 269 kts 97°
2026-04-23 19:03 -0.65381 167.07367 7084 ft 272 kts 76°
2026-04-23 19:03 -0.64796 167.09174 7801 ft 276 kts 71°
2026-04-23 19:03 -0.64131 167.10984 8532 ft 279 kts 71°
2026-04-23 19:04 -0.63443 167.12811 9293 ft 282 kts 70°
2026-04-23 19:04 -0.62751 167.14649 10070 ft 284 kts 70°
2026-04-23 19:04 -0.62040 167.16551 10457 ft 303 kts 70°
2026-04-23 19:04 -0.61281 167.18597 10620 ft 326 kts 70°
2026-04-23 19:05 -0.60471 167.20791 10794 ft 346 kts 70°
2026-04-23 19:05 -0.59628 167.23082 11229 ft 355 kts 70°
2026-04-23 19:05 -0.58775 167.25407 11859 ft 357 kts 70°
2026-04-23 19:05 -0.57919 167.27742 12544 ft 359 kts 71°
2026-04-23 19:06 -0.57061 167.30090 13197 ft 362 kts 71°
2026-04-23 19:06 -0.56193 167.32467 13826 ft 365 kts 71°
2026-04-23 19:06 -0.55332 167.34827 14389 ft 369 kts 71°
2026-04-23 19:06 -0.54449 167.37247 14968 ft 372 kts 70°
2026-04-23 19:07 -0.53560 167.39684 15576 ft 374 kts 70°
2026-04-23 19:07 -0.52665 167.42138 16161 ft 378 kts 70°
2026-04-23 19:07 -0.51761 167.44618 16726 ft 381 kts 70°
2026-04-23 19:07 -0.50850 167.47116 17287 ft 385 kts 70°
2026-04-23 19:08 -0.49930 167.49637 17830 ft 388 kts 70°
2026-04-23 19:08 -0.49002 167.52183 18348 ft 391 kts 70°
2026-04-23 19:08 -0.48066 167.54749 18815 ft 394 kts 70°
2026-04-23 19:08 -0.47125 167.57330 19294 ft 396 kts 70°
2026-04-23 19:09 -0.46178 167.59928 19754 ft 399 kts 70°
2026-04-23 19:09 -0.45224 167.62542 20191 ft 402 kts 70°
2026-04-23 19:09 -0.44265 167.65173 20641 ft 405 kts 70°
2026-04-23 19:09 -0.43297 167.67826 21070 ft 407 kts 71°
2026-04-23 19:10 -0.42338 167.70456 21478 ft 410 kts 71°
2026-04-23 19:10 -0.41359 167.73142 21893 ft 412 kts 71°
2026-04-23 19:10 -0.40371 167.75849 22292 ft 415 kts 71°
2026-04-23 19:10 -0.39380 167.78566 22685 ft 418 kts 71°
2026-04-23 19:11 -0.38383 167.81300 23064 ft 420 kts 71°
2026-04-23 19:11 -0.37379 167.84054 23428 ft 423 kts 71°
2026-04-23 19:11 -0.36368 167.86825 23752 ft 425 kts 71°
2026-04-23 19:11 -0.35355 167.89603 24079 ft 426 kts 71°
2026-04-23 19:12 -0.34682 167.91447 24292 ft 427 kts 71°
2026-04-23 19:12 -0.33316 167.95192 24706 ft 430 kts 71°
2026-04-23 19:12 -0.32289 167.98009 25008 ft 432 kts 71°
2026-04-23 19:12 -0.31257 168.00837 25309 ft 434 kts 71°
2026-04-23 19:13 -0.30225 168.03667 25610 ft 435 kts 71°
2026-04-23 19:13 -0.29185 168.06520 25912 ft 437 kts 71°
2026-04-23 19:13 -0.28141 168.09380 26196 ft 439 kts 71°
2026-04-23 19:13 -0.27094 168.12250 26479 ft 441 kts 71°
2026-04-23 19:14 -0.26044 168.15131 26751 ft 442 kts 71°
2026-04-23 19:14 -0.24998 168.17996 27016 ft 444 kts 71°
2026-04-23 19:14 -0.23937 168.20907 27283 ft 446 kts 71°
2026-04-23 19:14 -0.22873 168.23823 27543 ft 448 kts 71°
2026-04-23 19:15 -0.21806 168.26750 27802 ft 450 kts 71°
2026-04-23 19:15 -0.20731 168.29694 28050 ft 451 kts 71°
2026-04-23 19:15 -0.19655 168.32645 28299 ft 453 kts 71°
2026-04-23 19:15 -0.18572 168.35613 28524 ft 455 kts 71°
2026-04-23 19:16 -0.17485 168.38594 28747 ft 457 kts 71°
2026-04-23 19:16 -0.16396 168.41579 28982 ft 458 kts 71°
2026-04-23 19:16 -0.15302 168.44579 29207 ft 460 kts 71°
2026-04-23 19:17 -0.13104 168.50605 29630 ft 463 kts 71°
2026-04-23 19:17 -0.11998 168.53637 29840 ft 465 kts 71°
2026-04-23 19:17 -0.10892 168.56667 30100 ft 464 kts 71°
2026-04-23 19:17 -0.09789 168.59691 30386 ft 463 kts 71°
2026-04-23 19:18 -0.08688 168.62709 30658 ft 462 kts 71°
2026-04-23 19:18 -0.07586 168.65728 30897 ft 462 kts 71°
2026-04-23 19:18 -0.06501 168.68704 31149 ft 462 kts 71°
2026-04-23 19:18 -0.05401 168.71720 31442 ft 462 kts 71°
2026-04-23 19:19 -0.03201 168.77750 32004 ft 461 kts 71°
2026-04-23 19:19 -0.02104 168.80758 32287 ft 461 kts 70°
2026-04-23 19:20 0.00088 168.86766 32887 ft 460 kts 70°
2026-04-23 19:20 0.01183 168.89769 33197 ft 459 kts 70°
2026-04-23 19:20 0.02275 168.92760 33571 ft 457 kts 70°
2026-04-23 19:20 0.03362 168.95739 33941 ft 455 kts 70°
2026-04-23 19:21 0.04447 168.98716 34205 ft 455 kts 70°
2026-04-23 19:21 0.06614 169.04657 34747 ft 454 kts 70°
2026-04-23 19:21 0.07695 169.07618 35048 ft 453 kts 70°
2026-04-23 19:22 0.08771 169.10570 35335 ft 452 kts 70°
2026-04-23 19:22 0.09846 169.13517 35610 ft 451 kts 70°
2026-04-23 19:22 0.11996 169.19410 36151 ft 450 kts 69°
2026-04-23 19:23 0.13067 169.22348 36411 ft 450 kts 69°
2026-04-23 19:23 0.14125 169.25248 36667 ft 449 kts 69°
2026-04-23 19:23 0.15194 169.28180 36914 ft 449 kts 69°
2026-04-23 19:24 0.17351 169.34094 36912 ft 454 kts 69°
2026-04-23 19:24 0.20251 169.41924 36900 ft 447 kts 69°
2026-04-23 19:25 0.24644 169.53496 36912 ft 443 kts 68°
2026-04-23 19:26 0.27904 169.62123 36915 ft 443 kts 68°
2026-04-23 19:27 0.33334 169.76507 36917 ft 445 kts 68°
2026-04-23 19:28 0.37720 169.88128 36921 ft 448 kts 69°
2026-04-23 19:29 0.41025 169.96884 36919 ft 449 kts 69°
2026-04-23 19:30 0.44201 170.05666 36924 ft 450 kts 70°
2026-04-23 19:31 0.47191 170.14546 36922 ft 449 kts 70°
2026-04-23 19:31 0.49200 170.20459 36923 ft 449 kts 71°
2026-04-23 19:32 0.51215 170.26354 36918 ft 448 kts 71°
2026-04-23 19:32 0.53227 170.32234 36922 ft 447 kts 71°
2026-04-23 19:33 0.55234 170.38102 36921 ft 446 kts 71°
2026-04-23 19:33 0.58236 170.46883 36923 ft 444 kts 71°
2026-04-23 19:34 0.60232 170.52723 36926 ft 444 kts 71°
2026-04-23 19:35 0.63226 170.61479 36925 ft 443 kts 71°
2026-04-23 19:35 0.65159 170.67285 36930 ft 443 kts 71°
2026-04-23 19:36 0.67070 170.73153 36929 ft 443 kts 71°
2026-04-23 19:36 0.68978 170.79009 36932 ft 443 kts 71°
2026-04-23 19:37 0.70895 170.84872 36928 ft 444 kts 71°
2026-04-23 19:37 0.72817 170.90740 36930 ft 444 kts 71°
2026-04-23 19:38 0.74739 170.96606 36932 ft 444 kts 71°
2026-04-23 19:38 0.76653 171.02450 36929 ft 445 kts 71°
2026-04-23 19:39 0.78581 171.08336 36936 ft 446 kts 71°
2026-04-23 19:39 0.80509 171.14223 36935 ft 446 kts 71°
2026-04-23 19:40 0.82441 171.20123 36932 ft 447 kts 71°
2026-04-23 19:40 0.84374 171.26026 36931 ft 447 kts 71°
2026-04-23 19:41 0.86308 171.31932 36942 ft 447 kts 71°
2026-04-23 19:41 0.88240 171.37833 36931 ft 447 kts 71°
2026-04-23 19:42 0.90171 171.43729 36932 ft 446 kts 71°
2026-04-23 19:42 0.92097 171.49614 36934 ft 445 kts 71°
2026-04-23 19:43 0.94020 171.55486 36936 ft 444 kts 71°
2026-04-23 19:43 0.95928 171.61315 36937 ft 443 kts 71°
2026-04-23 19:44 0.97843 171.67166 36879 ft 444 kts 71°
2026-04-23 19:44 0.98811 171.70124 36337 ft 449 kts 71°
2026-04-23 19:44 0.99781 171.73087 35715 ft 447 kts 71°
2026-04-23 19:44 1.00750 171.76045 35041 ft 448 kts 72°
2026-04-23 19:45 1.01721 171.79012 34312 ft 451 kts 72°
2026-04-23 19:45 1.02700 171.82004 33519 ft 454 kts 72°
2026-04-23 19:45 1.03685 171.85015 32712 ft 456 kts 72°
2026-04-23 19:45 1.04672 171.88031 31920 ft 458 kts 72°
2026-04-23 19:46 1.05662 171.91057 31085 ft 460 kts 72°
2026-04-23 19:46 1.06659 171.94105 30289 ft 461 kts 72°
2026-04-23 19:46 1.07650 171.97134 29626 ft 457 kts 73°
2026-04-23 19:46 1.08621 172.00101 28973 ft 452 kts 73°
2026-04-23 19:47 1.09592 172.03067 28342 ft 447 kts 73°
2026-04-23 19:47 1.10555 172.06007 27732 ft 441 kts 73°
2026-04-23 19:47 1.11501 172.08899 27134 ft 436 kts 73°
2026-04-23 19:47 1.12438 172.11764 26557 ft 431 kts 73°
2026-04-23 19:48 1.13366 172.14600 25977 ft 427 kts 73°
2026-04-23 19:48 1.14285 172.17410 25400 ft 423 kts 73°
2026-04-23 19:48 1.15197 172.20196 24805 ft 420 kts 73°
2026-04-23 19:48 1.16101 172.22960 24224 ft 418 kts 73°
2026-04-23 19:49 1.17000 172.25710 23644 ft 415 kts 73°
2026-04-23 19:49 1.17894 172.28443 22986 ft 412 kts 73°
2026-04-23 19:49 1.18782 172.31159 22381 ft 408 kts 73°
2026-04-23 19:49 1.19659 172.33839 21797 ft 404 kts 73°
2026-04-23 19:50 1.20526 172.36492 21219 ft 400 kts 73°
2026-04-23 19:50 1.21386 172.39121 20680 ft 396 kts 73°
2026-04-23 19:50 1.22237 172.41723 20132 ft 393 kts 73°
2026-04-23 19:50 1.23081 172.44306 19580 ft 390 kts 73°
2026-04-23 19:51 1.23921 172.46876 19016 ft 388 kts 73°
2026-04-23 19:51 1.24756 172.49429 18464 ft 386 kts 73°
2026-04-23 19:51 1.25587 172.51970 17863 ft 384 kts 73°
2026-04-23 19:51 1.26414 172.54500 17283 ft 381 kts 73°
2026-04-23 19:52 1.27223 172.56975 16740 ft 377 kts 73°
2026-04-23 19:52 1.28036 172.59460 16200 ft 374 kts 73°
2026-04-23 19:52 1.28840 172.61920 15688 ft 370 kts 73°
2026-04-23 19:52 1.29637 172.64357 15176 ft 367 kts 73°
2026-04-23 19:53 1.30426 172.66769 14663 ft 364 kts 73°
2026-04-23 19:53 1.31210 172.69169 14159 ft 362 kts 73°
2026-04-23 19:53 1.31990 172.71555 13663 ft 359 kts 73°
2026-04-23 19:53 1.32763 172.73919 13118 ft 356 kts 73°
2026-04-23 19:54 1.33528 172.76262 12595 ft 353 kts 73°
2026-04-23 19:54 1.34286 172.78580 12183 ft 347 kts 73°
2026-04-23 19:54 1.35021 172.80827 12058 ft 333 kts 73°
2026-04-23 19:54 1.35727 172.82988 11959 ft 320 kts 73°
2026-04-23 19:55 1.36405 172.85059 11868 ft 307 kts 73°
2026-04-23 19:55 1.37047 172.87025 11787 ft 296 kts 73°
2026-04-23 19:55 1.37677 172.88955 11575 ft 290 kts 74°
2026-04-23 19:55 1.38299 172.90863 11263 ft 288 kts 74°
2026-04-23 19:56 1.38921 172.92768 10951 ft 288 kts 73°
2026-04-23 19:56 1.39542 172.94668 10665 ft 286 kts 73°
2026-04-23 19:56 1.40092 172.96570 10340 ft 284 kts 84°
2026-04-23 19:56 1.39953 172.98515 10015 ft 281 kts 104°
2026-04-23 19:57 1.39361 173.00361 9708 ft 279 kts 110°
2026-04-23 19:57 1.38664 173.02169 9352 ft 278 kts 111°
2026-04-23 19:57 1.37951 173.03967 9005 ft 277 kts 111°
2026-04-23 19:57 1.37245 173.05758 8668 ft 276 kts 111°
2026-04-23 19:58 1.36551 173.07542 8348 ft 275 kts 111°
2026-04-23 19:58 1.35865 173.09322 8059 ft 274 kts 111°
2026-04-23 19:58 1.35185 173.11097 7771 ft 273 kts 111°
2026-04-23 19:58 1.34512 173.12864 7490 ft 271 kts 111°
2026-04-23 19:59 1.33842 173.14627 7158 ft 271 kts 111°
2026-04-23 19:59 1.33174 173.16390 6848 ft 270 kts 111°
2026-04-23 19:59 1.32508 173.18147 6532 ft 270 kts 111°
2026-04-23 19:59 1.31843 173.19903 6247 ft 270 kts 111°
2026-04-23 20:00 1.31181 173.21651 6055 ft 268 kts 110°
2026-04-23 20:00 1.30523 173.23389 5825 ft 268 kts 111°
2026-04-23 20:00 1.29863 173.25133 5612 ft 266 kts 111°
2026-04-23 20:00 1.29248 173.26868 5388 ft 265 kts 103°
2026-04-23 20:01 1.29272 173.28670 5032 ft 265 kts 75°
2026-04-23 20:01 1.30156 173.30251 4741 ft 258 kts 47°
2026-04-23 20:01 1.31552 173.31276 4636 ft 245 kts 27°
2026-04-23 20:01 1.33179 173.31702 4325 ft 242 kts
2026-04-23 20:02 1.34799 173.31310 3915 ft 243 kts 329°
2026-04-23 20:02 1.35968 173.30118 3515 ft 242 kts 297°
2026-04-23 20:02 1.36463 173.28523 3144 ft 240 kts 278°
2026-04-23 20:02 1.36678 173.26870 2760 ft 239 kts 276°
2026-04-23 20:03 1.36866 173.25223 2384 ft 238 kts 276°
2026-04-23 20:03 1.37054 173.23587 1983 ft 237 kts 275°
2026-04-23 20:03 1.37241 173.21917 1318 ft 242 kts 277°
2026-04-23 20:03 1.37428 173.20247 721 ft 238 kts 277°
2026-04-23 20:04 1.37646 173.18739 719 ft 204 kts 278°
2026-04-23 20:04 1.37789 173.17358 361 ft 195 kts 279°
2026-04-23 20:04 1.37973 173.16080 145 ft 180 kts 279°
2026-04-23 20:04 1.38134 173.14905 14 ft 152 kts 278°
2026-04-23 20:05 1.38216 173.14327 13 ft 87 kts 279°
2026-04-23 20:05 1.38257 173.13992 19 ft 25 kts 278°
2026-04-23 20:05 1.38244 173.13864 18 ft 14 kts 252°
2026-04-23 20:05 1.38261 173.13842 20 ft 4 kts 48°
2026-04-23 20:06 1.38268 173.13869 19 ft 4 kts 88°
2026-04-23 20:06 1.38266 173.13916 18 ft 11 kts 93°
2026-04-23 20:06 1.38257 173.14028 19 ft 21 kts 102°
2026-04-23 20:06 1.38223 173.14205 17 ft 30 kts 98°
2026-04-23 20:07 1.38201 173.14405 13 ft 27 kts 93°
2026-04-23 20:07 1.38176 173.14539 15 ft 12 kts 121°
2026-04-23 20:07 1.38118 173.14570 11 ft 9 kts 188°
2026-04-23 20:07 1.38098 173.14551 11 ft 0 kts 233°